OPS 4682 DEB, 18269

Orbit data source: Space-Track

OPS 4682 DEB, 18269 is space debris in LEO originally from a launch on Sat, 03 Apr 1965 UTC launched from the Air Force Western Test Range (AFWTR). Debris objects in space refer to the collection of defunct objects orbiting the Earth. Examples of debris include non-operational satellites, rocket bodies, and fragments generated from explosions, collisions, or faulty payload assembly.

Loading next visibility...
Identifier
18269, 1965-027Y
Orbit
LEO
Country
Flag of USUS
Related business
Manufacturer
Unknown
Mission
Spacecraft
Bus & Motor
Unknown
Mass
Unknown
Launch date (UTC)
1965-04-03 (61 years ago)
Launch vehicle
Unknown
Launch site
Air Force Western Test Range (AFWTR)
Object type
Payload
Rocket body
Debris
Shape & HBR
Unknown shape, 0.1 m
Radar Cross Section
Small (<0.1 m²)

Expand to show TLE details & history
Last TLE update: 3 days ago

TLE from 3 days ago
0 OPS 4682 DEB
1 18269U 65027Y   25300.88869861  .00000371  00000-0  12783-2 0  9994
2 18269  90.2588   8.1119 0033022  75.3364 285.1413 12.95824607539801
Epoch: 2025-10-27T21:19Z
TLE epoch observation values (Epoch: 2025-10-27T21:19:43.559Z)
Latitude
-0.00003°
Longitude
11.69633°
Altitude
1,274.84 km
Speed
7.221 km/s
True Right ascension
00h 32m 26s
True Declination
0° 00' 00"
Sunlit
Object was in full shadow at epoch
Visualization orbit readout
Latitude
Unknown
Longitude
Unknown
Altitude
Unknown
Speed
Unknown
Apparent Right ascension
Unknown
Apparent Declination
Unknown
Sunlit
N/A
Visualization observer readout
Local Sidereal Time
19:22:00
Azimuth
Unknown
Elevation
Unknown
Doppler factor
Unknown
Orbital elements
Apogee altitude
1,300.897 km
Perigee altitude
1,250.349 km
Semi-major axis
7,653.76 km
Eccentricity
0.0033
Inclination
90.2588°
RAAN
8.1119°
Arg. of periapsis
75.3364°
True anomaly
284.77564°
Mean anomaly
285.1413°
Eccentric anomaly
284.95851°
Mean motion
3.24139 °/min
Orbital period
111.06 mins
BSTAR
0.0012783
Loading maneuver chart data...
Computing Atmospheric mass density...
Loading historical data...
Loading historical data...
Loading historical data...
Loading historical data...
Loading historical data...
Loading historical data...
Loading historical data...

Documentation

Showing up to 5 results
|